Mammoth, CA

6:16 AM PDT on June 24, 2018 (GMT -0700)
Mammoth Yosemite

Weather History for KMMH - October, 2017

Change the Weather History Date:

Monday, October 9, 2017

  Actual Average Record
Temperature  
Mean Temperature 39 °F -  
Max Temperature 56 °F 60 °F 80 °F (2015)
Min Temperature 22 °F 41 °F 22 °F (2017)
Degree Days  
Heating Degree Days 26    
Moisture  
Dew Point 9 °F    
Average Humidity 32    
Maximum Humidity 56    
Minimum Humidity 12    
Precipitation  
Precipitation 0.00 in - - ()
Sea Level Pressure  
Sea Level Pressure 30.25 in    
Wind  
Wind Speed 8 mph (NNW)    
Max Wind Speed 17 mph    
Max Gust Speed 20 mph    
Visibility 10 miles    
Events      
Averages and records for this station are not official NWS values.
T = Trace of Precipitation, MM = Missing Value Source: NWS Daily Summary

Daily Weather History Graph

Daily Weather History Graph

Search for Another Location

Airport or City:

Astronomy

Oct. 09, 2017 Rise Set
Actual Time 6:58 AM PDT 6:26 PM PDT
Civil Twilight 6:32 AM PDT 6:52 PM PDT
Nautical Twilight 6:01 AM PDT 7:22 PM PDT
Astronomical Twilight 5:31 AM PDT 7:52 PM PDT
Moon 9:44 PM PDT (10/9) 11:10 AM PDT (10/9)
Length of Visible Light 12h 20m
Length of Day
11h 27m
Waning Gibbous, 80% of the Moon is Illuminated
Oct 9
Waning Gibbous
Oct 12
Last Quarter
Oct 19
New
Oct 27
First Quarter
Nov 3
Full

Hourly Weather History & Observations

Time (PDT) Temp. Windchill Dew Point Humidity Pressure Visibility Wind Dir Wind Speed Gust Speed Precip Events Conditions
12:15 AM 34.0 °F 25.0 °F 16.2 °F 48% 30.23 in 10.0 mi WNW 12.7 mph - N/A   Clear
12:35 AM 35.2 °F 25.4 °F 14.7 °F 43% 30.23 in 10.0 mi West 16.1 mph - N/A   Clear
12:55 AM 35.1 °F 24.8 °F 13.6 °F 41% 30.24 in 10.0 mi West 17.3 mph - N/A   Clear
1:15 AM 34.9 °F 25.3 °F 13.8 °F 42% 30.24 in 10.0 mi West 15.0 mph - N/A   Clear
1:35 AM 33.8 °F 23.9 °F 13.6 °F 44% 30.25 in 10.0 mi West 15.0 mph - N/A   Clear
1:55 AM 34.7 °F 26.4 °F 13.5 °F 42% 30.25 in 10.0 mi West 11.5 mph - N/A   Clear
2:15 AM 33.6 °F 24.1 °F 12.2 °F 41% 30.26 in 10.0 mi WNW 13.8 mph 19.6 mph N/A   Clear
2:35 AM 32.2 °F 23.8 °F 12.4 °F 44% 30.26 in 10.0 mi WNW 10.4 mph - N/A   Clear
2:55 AM 32.5 °F 23.7 °F 12.0 °F 43% 30.26 in 10.0 mi WNW 11.5 mph - N/A   Clear
3:15 AM 32.5 °F 23.7 °F 12.2 °F 43% 30.26 in 10.0 mi WNW 11.5 mph - N/A   Clear
3:35 AM 32.0 °F 23.6 °F 11.8 °F 43% 30.25 in 10.0 mi WNW 10.4 mph - N/A   Clear
3:55 AM 30.7 °F 22.0 °F 12.2 °F 46% 30.25 in 10.0 mi WNW 10.4 mph - N/A   Clear
4:15 AM 29.8 °F 23.0 °F 12.9 °F 49% 30.25 in 10.0 mi NW 6.9 mph - N/A   Clear
4:35 AM 28.2 °F 19.5 °F 12.4 °F 52% 30.25 in 10.0 mi West 9.2 mph - N/A   Clear
4:55 AM 27.3 °F 19.9 °F 11.5 °F 51% 30.26 in 10.0 mi West 6.9 mph - N/A   Clear
5:15 AM 26.6 °F 20.0 °F 11.7 °F 53% 30.26 in 10.0 mi West 5.8 mph - N/A   Clear
5:35 AM 25.3 °F - 11.7 °F 56% 30.26 in 10.0 mi Calm Calm - N/A   Clear
5:55 AM 26.2 °F 22.1 °F 10.4 °F 51% 30.27 in 10.0 mi NNW 3.5 mph - N/A   Clear
6:15 AM 25.0 °F - 11.1 °F 56% 30.27 in 10.0 mi Calm Calm - N/A   Clear
6:35 AM 24.6 °F 17.7 °F 9.9 °F 54% 30.28 in 10.0 mi West 5.8 mph - N/A   Clear
6:55 AM 23.7 °F 16.6 °F 7.0 °F 49% 30.28 in 10.0 mi NW 5.8 mph - N/A   Clear
7:15 AM 22.8 °F 15.5 °F 7.7 °F 52% 30.27 in 10.0 mi North 5.8 mph - N/A   Clear
7:35 AM 25.2 °F 20.9 °F 7.2 °F 46% 30.28 in 10.0 mi West 3.5 mph - N/A   Clear
7:55 AM 29.7 °F 26.1 °F 5.2 °F 35% 30.28 in 10.0 mi WSW 3.5 mph - N/A   Clear
8:15 AM 32.0 °F - 7.2 °F 35% 30.29 in 10.0 mi Calm Calm - N/A   Clear
8:35 AM 34.0 °F - 7.9 °F 34% 30.30 in 10.0 mi Calm Calm - N/A   Clear
8:55 AM 37.8 °F - 8.8 °F 30% 30.30 in 10.0 mi Calm Calm - N/A   Clear
9:15 AM 39.2 °F - 7.5 °F 27% 30.30 in 10.0 mi Calm Calm - N/A   Clear
9:35 AM 41.7 °F 38.0 °F 10.4 °F 28% 30.30 in 10.0 mi SE 5.8 mph - N/A   Clear
9:55 AM 42.8 °F 38.6 °F 13.3 °F 30% 30.30 in 10.0 mi ESE 6.9 mph - N/A   Clear
10:15 AM 43.9 °F 40.5 °F 14.4 °F 30% 30.31 in 10.0 mi SE 5.8 mph - N/A   Clear
10:35 AM 45.0 °F 41.2 °F 13.6 °F 28% 30.31 in 10.0 mi SE 6.9 mph - N/A   Clear
10:55 AM 45.9 °F 44.6 °F 11.3 °F 25% 30.31 in 10.0 mi East 3.5 mph - N/A   Clear
11:15 AM 47.3 °F - 11.1 °F 23% 30.30 in 10.0 mi ESE 5.8 mph - N/A   Clear
11:35 AM 48.6 °F - 10.6 °F 22% 30.30 in 7.0 mi ESE 5.8 mph - N/A   Clear
11:55 AM 49.1 °F - 9.9 °F 21% 30.30 in 10.0 mi ESE 5.8 mph - N/A   Clear
12:15 PM 50.7 °F - 7.5 °F 17% 30.29 in 10.0 mi ESE 5.8 mph - N/A   Clear
12:35 PM 51.3 °F - 5.5 °F 16% 30.28 in 10.0 mi ESE 3.5 mph - N/A   Clear
12:55 PM 52.3 °F - 4.1 °F 14% 30.27 in 10.0 mi NE 3.5 mph - N/A   Clear
1:15 PM 53.1 °F - 4.3 °F 14% 30.26 in 10.0 mi SE 5.8 mph - N/A   Clear
1:35 PM 54.0 °F - 2.7 °F 12% 30.25 in 10.0 mi SSE 3.5 mph - N/A   Clear
1:55 PM 55.4 °F - 3.6 °F 12% 30.24 in 10.0 mi ESE 6.9 mph - N/A   Clear
2:15 PM 55.0 °F - 3.6 °F 12% 30.23 in 10.0 mi ESE 4.6 mph - N/A   Clear
2:35 PM 56.1 °F - 3.0 °F 12% 30.22 in 10.0 mi SE 3.5 mph - N/A   Clear
2:55 PM 56.7 °F - 3.4 °F 12% 30.22 in 10.0 mi ESE 4.6 mph - N/A   Clear
3:15 PM 56.3 °F - 8.4 °F 15% 30.22 in 10.0 mi ESE 6.9 mph - N/A   Clear
3:35 PM 56.7 °F - 7.5 °F 14% 30.22 in 10.0 mi ESE 9.2 mph - N/A   Clear
3:55 PM 55.8 °F - 4.5 °F 13% 30.22 in 10.0 mi ESE 9.2 mph - N/A   Clear
4:15 PM 55.4 °F - 3.9 °F 13% 30.22 in 10.0 mi East 5.8 mph - N/A   Clear
4:35 PM 54.7 °F - 4.8 °F 13% 30.22 in 10.0 mi ESE 5.8 mph - N/A   Clear
4:55 PM 54.9 °F - 5.4 °F 14% 30.22 in 10.0 mi East 4.6 mph - N/A   Clear
5:15 PM 53.6 °F - 4.6 °F 14% 30.21 in 10.0 mi Calm Calm - N/A   Clear
5:35 PM 52.9 °F - 6.4 °F 15% 30.21 in 10.0 mi ESE 8.1 mph - N/A   Clear
5:55 PM 50.2 °F - 9.3 °F 19% 30.22 in 10.0 mi ESE 5.8 mph - N/A   Clear
6:15 PM 47.5 °F - 8.8 °F 21% 30.22 in 10.0 mi Calm Calm - N/A   Clear
6:35 PM 44.6 °F - 6.8 °F 21% 30.22 in 10.0 mi Calm Calm - N/A   Clear
6:55 PM 42.1 °F - 7.2 °F 24% 30.23 in 10.0 mi Calm Calm - N/A   Clear
7:15 PM 39.7 °F - 5.0 °F 24% 30.23 in 10.0 mi Calm Calm - N/A   Clear
7:35 PM 36.7 °F - 7.3 °F 30% 30.23 in 10.0 mi Calm Calm - N/A   Clear
7:55 PM 36.5 °F 33.9 °F 9.5 °F 33% 30.24 in 10.0 mi NW 3.5 mph - N/A   Clear
8:15 PM 33.8 °F 30.8 °F 7.7 °F 34% 30.24 in 10.0 mi NW 3.5 mph - N/A   Clear
8:35 PM 33.6 °F 30.6 °F 9.3 °F 36% 30.24 in 10.0 mi NW 3.5 mph - N/A   Clear
8:55 PM 34.0 °F 29.8 °F 10.4 °F 38% 30.25 in 10.0 mi NW 4.6 mph - N/A   Clear
9:15 PM 32.5 °F 28.1 °F 8.6 °F 37% 30.25 in 10.0 mi North 4.6 mph - N/A   Clear
9:35 PM 31.3 °F - 8.1 °F 38% 30.25 in 10.0 mi Calm Calm - N/A   Clear
9:55 PM 31.5 °F - 8.2 °F 38% 30.25 in 10.0 mi Calm Calm - N/A   Clear
10:15 PM 31.1 °F 27.7 °F 7.5 °F 37% 30.25 in 10.0 mi NNW 3.5 mph - N/A   Clear
10:35 PM 31.1 °F - 9.7 °F 41% 30.25 in 10.0 mi Calm Calm - N/A   Clear
10:55 PM 29.5 °F 25.9 °F 9.0 °F 42% 30.25 in 10.0 mi North 3.5 mph - N/A   Clear
11:15 PM 28.6 °F - 7.9 °F 42% 30.24 in 10.0 mi Calm Calm - N/A   Clear
11:35 PM 28.2 °F 24.4 °F 8.1 °F 43% 30.24 in 10.0 mi North 3.5 mph - N/A   Clear
11:55 PM 26.4 °F - 7.9 °F 46% 30.24 in 10.0 mi Calm Calm - N/A   Clear